Change the Weather History Date:

Monday, November 14, 2011

  Actual Average Record
Temperature  
Mean Temperature 38 °F -  
Max Temperature 48 °F 40 °F 68 °F (1990)
Min Temperature 28 °F 22 °F -7 °F (2014)
Degree Days  
Heating Degree Days 27    
Moisture  
Dew Point 25 °F    
Average Humidity 62    
Maximum Humidity 81    
Minimum Humidity 37    
Precipitation  
Precipitation 0.00 in - - ()
Sea Level Pressure  
Sea Level Pressure 29.48 in    
Wind  
Wind Speed 11 mph (SW)    
Max Wind Speed 24 mph    
Max Gust Speed 30 mph    
Visibility 10 miles    
Events      
Averages and records for this station are not official NWS values.
T = Trace of Precipitation, MM = Missing Value Source: NWS Daily Summary

Daily Weather History Graph

Daily Weather History Graph

Search for Another Location

Airport or City:

Trip Planner

Search our weather history database for the weather conditions in past years. The results will help you decide how hot, cold, wet, or windy it might be!

Date:

Astronomy

Nov. 14, 2011 Rise Set
Actual Time 7:24 AM CST 4:56 PM CST
Civil Twilight 6:52 AM CST 5:28 PM CST
Nautical Twilight 6:16 AM CST 6:04 PM CST
Astronomical Twilight 5:40 AM CST 6:39 PM CST
Moon 8:00 PM CST (11/14) 10:48 AM CST (11/14)
Length of Visible Light 10h 36m
Length of Day
9h 32m
Waning Gibbous, 86% of the Moon is Illuminated
Nov 14
Waning Gibbous
Nov 18
Last Quarter
Nov 25
New
Dec 2
First Quarter
Dec 10
Full

Hourly Weather History & Observations

Time (CST) Temp. Windchill Dew Point Humidity Pressure Visibility Wind Dir Wind Speed Gust Speed Precip Events Conditions
12:16 AM 33.8 °F 25.8 °F 24.8 °F 70% 29.40 in 10.0 mi SSW 10.4 mph - N/A   Clear
12:35 AM 33.8 °F 24.8 °F 24.8 °F 70% 29.40 in 10.0 mi SSW 12.7 mph - N/A   Clear
12:56 AM 35.6 °F 27.1 °F 24.8 °F 65% 29.40 in 10.0 mi SSW 12.7 mph - N/A   Clear
1:15 AM 35.6 °F 27.5 °F 24.8 °F 65% 29.40 in 10.0 mi SW 11.5 mph - N/A   Clear
1:36 AM 37.4 °F 29.3 °F 24.8 °F 60% 29.41 in 10.0 mi SW 12.7 mph - N/A   Clear
1:55 AM 37.4 °F 29.8 °F 24.8 °F 60% 29.41 in 10.0 mi SW 11.5 mph - N/A   Clear
2:15 AM 37.4 °F 29.8 °F 24.8 °F 60% 29.41 in 10.0 mi SW 11.5 mph - N/A   Clear
2:35 AM 35.6 °F 28.6 °F 24.8 °F 65% 29.41 in 10.0 mi SW 9.2 mph - N/A   Clear
2:55 AM 35.6 °F 29.2 °F 26.6 °F 70% 29.41 in 10.0 mi WSW 8.1 mph - N/A   Clear
3:36 AM 33.8 °F 27.0 °F 24.8 °F 70% 29.41 in 10.0 mi SW 8.1 mph - N/A   Clear
3:55 AM 30.2 °F 22.6 °F 24.8 °F 80% 29.40 in 10.0 mi SW 8.1 mph - N/A   Clear
4:16 AM 33.8 °F 27.0 °F 24.8 °F 70% 29.40 in 10.0 mi WSW 8.1 mph - N/A   Clear
4:35 AM 32.0 °F 25.6 °F 26.6 °F 80% 29.40 in 10.0 mi SW 6.9 mph - N/A   Clear
4:56 AM 30.2 °F 24.3 °F 23.0 °F 75% 29.41 in 10.0 mi SSW 5.8 mph - N/A   Clear
5:15 AM 28.4 °F 21.2 °F 23.0 °F 80% 29.42 in 10.0 mi South 6.9 mph - N/A   Clear
5:36 AM 28.4 °F 19.7 °F 23.0 °F 80% 29.41 in 10.0 mi South 9.2 mph - N/A   Clear
6:16 AM 30.2 °F 23.4 °F 24.8 °F 80% 29.42 in 10.0 mi SSW 6.9 mph - N/A   Scattered Clouds
6:36 AM 30.2 °F 25.4 °F 24.8 °F 80% 29.43 in 10.0 mi SSW 4.6 mph - N/A   Scattered Clouds
6:56 AM 32.0 °F 24.8 °F 26.6 °F 80% 29.43 in 10.0 mi WSW 8.1 mph - N/A   Clear
7:16 AM 33.8 °F 25.8 °F 26.6 °F 75% 29.43 in 10.0 mi WSW 10.4 mph - N/A   Clear
7:36 AM 33.8 °F 25.8 °F 26.6 °F 75% 29.43 in 10.0 mi WSW 10.4 mph - N/A   Clear
7:56 AM 33.8 °F 26.4 °F 26.6 °F 75% 29.44 in 10.0 mi WSW 9.2 mph - N/A   Clear
8:36 AM 33.8 °F 25.3 °F 28.4 °F 81% 29.45 in 10.0 mi WSW 11.5 mph - N/A   Clear
8:56 AM 35.6 °F 28.0 °F 28.4 °F 75% 29.45 in 10.0 mi WSW 10.4 mph 17.3 mph N/A   Clear
9:16 AM 37.4 °F 30.3 °F 28.4 °F 70% 29.46 in 10.0 mi WSW 10.4 mph - N/A   Clear
9:35 AM 39.2 °F 31.2 °F 30.2 °F 70% 29.47 in 10.0 mi WSW 13.8 mph - N/A   Clear
9:56 AM 39.2 °F 30.8 °F 30.2 °F 70% 29.47 in 10.0 mi WSW 15.0 mph 18.4 mph N/A   Clear
10:37 AM 42.8 °F 36.2 °F 30.2 °F 61% 29.46 in 10.0 mi West 12.7 mph 19.6 mph N/A   Clear
10:58 AM 44.6 °F 37.2 °F 30.2 °F 57% 29.47 in 10.0 mi West 17.3 mph 20.7 mph N/A   Clear
11:15 AM 42.8 °F 34.3 °F 30.2 °F 61% 29.47 in 10.0 mi West 19.6 mph 24.2 mph N/A   Clear
11:36 AM 44.6 °F 36.4 °F 30.2 °F 57% 29.46 in 10.0 mi West 20.7 mph 24.2 mph N/A   Clear
12:17 PM 44.6 °F 37.8 °F 28.4 °F 53% 29.46 in 10.0 mi WSW 15.0 mph 24.2 mph N/A   Clear
12:35 PM 46.4 °F 39.2 °F 26.6 °F 46% 29.46 in 10.0 mi WSW 18.4 mph 24.2 mph N/A   Clear
12:55 PM 46.4 °F 39.2 °F 26.6 °F 46% 29.45 in 10.0 mi West 18.4 mph 23.0 mph N/A   Clear
1:16 PM 46.4 °F 38.1 °F 26.6 °F 46% 29.46 in 10.0 mi WSW 24.2 mph 27.6 mph N/A   Clear
1:36 PM 48.2 °F - 24.8 °F 40% 29.46 in 10.0 mi WSW 20.7 mph 26.5 mph N/A   Clear
1:56 PM 48.2 °F - 24.8 °F 40% 29.45 in 10.0 mi West 18.4 mph 25.3 mph N/A   Clear
2:16 PM 48.2 °F - 23.0 °F 37% 29.46 in 10.0 mi West 23.0 mph 28.8 mph N/A   Clear
2:35 PM 48.2 °F - 23.0 °F 37% 29.47 in 10.0 mi West 23.0 mph 29.9 mph N/A   Clear
2:55 PM 46.4 °F 38.7 °F 24.8 °F 43% 29.48 in 10.0 mi West 20.7 mph 28.8 mph N/A   Clear
3:16 PM 46.4 °F 39.5 °F 26.6 °F 46% 29.49 in 10.0 mi WNW 17.3 mph 26.5 mph N/A   Clear
3:36 PM 44.6 °F 36.4 °F 26.6 °F 49% 29.50 in 10.0 mi WNW 20.7 mph 24.2 mph N/A   Clear
3:55 PM 44.6 °F 38.1 °F 26.6 °F 49% 29.51 in 10.0 mi WNW 13.8 mph 24.2 mph N/A   Clear
4:15 PM 44.6 °F 39.2 °F 26.6 °F 49% 29.52 in 10.0 mi West 10.4 mph 19.6 mph N/A   Clear
4:35 PM 42.8 °F 38.0 °F 26.6 °F 53% 29.52 in 10.0 mi WNW 8.1 mph - N/A   Clear
4:55 PM 39.2 °F 34.2 °F 26.6 °F 61% 29.53 in 10.0 mi WNW 6.9 mph - N/A   Clear
5:15 PM 39.2 °F 37.0 °F 24.8 °F 56% 29.54 in 10.0 mi WSW 3.5 mph - N/A   Clear
5:35 PM 37.4 °F 34.9 °F 24.8 °F 60% 29.55 in 10.0 mi SSW 3.5 mph - N/A   Clear
5:55 PM 35.6 °F - 23.0 °F 60% 29.54 in 10.0 mi Calm Calm - N/A   Clear
6:15 PM 33.8 °F 30.8 °F 21.2 °F 60% 29.54 in 10.0 mi South 3.5 mph - N/A   Clear
6:35 PM 37.4 °F 33.8 °F 24.8 °F 60% 29.55 in 10.0 mi SSW 4.6 mph - N/A   Clear
6:55 PM 33.8 °F 28.6 °F 21.2 °F 60% 29.56 in 10.0 mi South 5.8 mph - N/A   Clear
7:15 PM 32.0 °F 25.6 °F 21.2 °F 64% 29.56 in 10.0 mi South 6.9 mph - N/A   Clear
7:35 PM 32.0 °F 24.8 °F 21.2 °F 64% 29.56 in 10.0 mi South 8.1 mph - N/A   Clear
7:55 PM 33.8 °F 26.4 °F 21.2 °F 60% 29.56 in 10.0 mi South 9.2 mph - N/A   Clear
8:15 PM 33.8 °F 27.0 °F 21.2 °F 60% 29.56 in 10.0 mi South 8.1 mph - N/A   Clear
8:35 PM 30.2 °F 23.4 °F 19.4 °F 64% 29.56 in 10.0 mi SSE 6.9 mph - N/A   Clear
9:15 PM 33.8 °F 27.0 °F 21.2 °F 60% 29.56 in 10.0 mi SSE 8.1 mph - N/A   Clear
9:35 PM 30.2 °F 24.3 °F 19.4 °F 64% 29.56 in 10.0 mi SSE 5.8 mph - N/A   Clear
9:55 PM 32.0 °F 24.8 °F 21.2 °F 64% 29.56 in 10.0 mi SSE 8.1 mph - N/A   Clear
10:16 PM 32.0 °F 24.2 °F 19.4 °F 60% 29.56 in 10.0 mi South 9.2 mph - N/A   Clear
10:35 PM 30.2 °F 20.8 °F 19.4 °F 64% 29.55 in 10.0 mi South 11.5 mph - N/A   Clear
10:55 PM 32.0 °F 23.6 °F 19.4 °F 60% 29.55 in 10.0 mi South 10.4 mph - N/A   Scattered Clouds
11:15 PM 30.2 °F 21.9 °F 19.4 °F 64% 29.56 in 10.0 mi South 9.2 mph - N/A   Mostly Cloudy
11:36 PM 30.2 °F 21.3 °F 19.4 °F 64% 29.54 in 10.0 mi South 10.4 mph - N/A   Mostly Cloudy
11:55 PM 30.2 °F 26.7 °F 21.2 °F 69% 29.55 in 10.0 mi South 3.5 mph - N/A   Overcast